GFSNIL_850_temp_009.txt.gz
Temp
11 11 10 10 10 9 8 7 6 6 6 5 5 4 3 3 3 3 3 3 2 2
11 10 10 10 9 9 8 7 6 6 5 5 4 4 3 3 3 3 3 2 2 2
11 10 10 9 9 8 7 7 6 5 5 5 4 4 3 3 3 3 3 2 2 2
10 10 9 9 8 8 7 6 6 5 5 4 4 4 3 3 3 2 2 2 2 2
10 9 9 8 8 7 6 6 6 5 5 4 4 3 3 3 3 2 2 2 2 2
10 9 8 8 7 6 6 6 5 5 5 4 4 3 3 3 2 2 2 1 1 1
10 9 9 8 7 6 6 6 5 5 4 4 3 3 3 2 2 1 1 1 1 2
11 9 8 8 7 6 6 5 5 4 4 4 3 3 2 2 1 1 1 1 2 1
10 9 8 7 7 6 6 5 5 4 4 3 3 2 2 1 1 1 1 1 1 1
10 9 8 7 7 6 6 5 5 4 3 3 3 2 1 1 1 1 1 1 1 1
10 9 8 7 6 6 5 5 4 4 3 3 2 2 1 1 0 0 0 0 0 0
10 9 8 7 6 6 5 4 4 4 3 2 2 1 1 0 0 -0 -0 -1 -0 -0
10 9 8 7 6 5 5 4 3 3 2 2 1 1 1 0 -0 -1 -1 -1 -1 -1
9 8 7 7 5 5 4 3 3 2 2 1 1 1 0 0 -1 -1 -1 -0 -0 -1

GFSNIL_850_temp_015.txt.gz
Temp
15 15 14 14 13 12 12 12 11 10 9 8 7 7 6 6 6 5 4 4 4 3
15 15 14 14 13 12 11 11 10 9 9 7 7 6 6 6 5 5 4 4 4 3
15 14 14 13 12 11 11 10 9 9 8 7 7 6 6 6 5 5 5 4 3 3
14 14 14 13 12 11 11 10 9 9 8 7 6 6 5 5 5 5 4 4 3 3
13 14 14 12 12 11 10 10 9 8 8 7 6 6 5 5 5 4 4 4 3 3
11 13 13 12 11 11 10 9 8 8 7 7 6 6 5 5 4 4 4 3 3 2
11 12 12 12 11 10 9 9 8 8 7 6 6 5 5 4 4 4 4 3 2 1
11 11 12 12 11 10 9 8 8 7 7 6 6 5 5 4 4 4 3 3 2 1
9 10 11 11 10 9 9 8 7 7 6 6 5 5 4 4 4 3 2 2 1 1
9 10 11 11 10 9 9 8 7 6 6 5 5 4 4 3 3 2 2 1 1 1
9 9 10 11 10 9 8 8 7 6 6 5 5 4 3 3 2 2 2 1 1 0
8 9 9 11 10 9 8 7 7 6 5 5 4 4 3 2 2 2 2 1 1 0
8 9 9 10 10 9 8 7 6 6 5 4 4 3 3 2 2 2 1 1 1 0
7 8 9 10 10 9 8 7 6 5 4 4 4 3 2 2 1 1 1 1 1 0

GFSNIL_850_temp_021.txt.gz
Temp
14 12 11 12 13 11 11 15 15 14 13 12 12 11 11 10 9 8 7 6 6 6
13 13 11 11 13 12 10 11 14 14 13 12 11 11 10 9 9 8 6 6 6 5
12 12 12 11 11 12 10 10 12 13 13 12 10 10 9 9 8 7 6 5 5 5
11 11 11 11 10 11 11 10 10 12 13 12 10 10 8 8 7 6 6 5 5 5
10 10 10 11 11 11 11 10 9 11 12 12 11 9 8 7 6 6 5 5 5 5
9 9 9 10 11 10 11 10 8 9 12 11 10 9 8 7 6 6 6 5 5 5
8 8 9 9 10 10 10 10 8 8 11 11 10 9 8 6 6 6 5 5 5 4
7 7 8 9 9 10 10 9 8 8 9 10 9 8 7 6 6 6 5 5 4 4
6 6 7 8 8 9 10 9 9 8 8 9 8 8 7 7 6 6 5 5 4 4
5 5 6 7 7 8 9 9 9 8 7 8 8 7 7 7 7 5 4 4 4 4
5 5 5 6 7 7 8 9 9 8 7 7 6 7 8 8 6 4 4 4 4 3
5 4 4 5 6 7 8 8 8 8 7 6 6 7 8 7 6 5 4 4 3 3
4 4 4 4 5 6 7 8 8 7 7 6 6 7 7 7 5 4 4 3 3 2
3 3 4 4 4 6 7 7 7 7 6 6 5 7 7 6 5 4 4 4 3 3

GFSNIL_850_temp_024.txt.gz
Temp
11 12 13 13 13 14 13 11 11 12 13 12 12 13 12 12 12 11 10 10 9 9
10 11 12 12 13 13 13 12 11 11 12 12 11 12 12 12 11 11 10 10 9 9
9 9 10 11 12 12 12 12 11 10 11 11 11 11 11 11 11 10 10 9 9 8
8 8 9 10 11 12 11 11 11 9 10 11 10 11 11 11 11 10 9 8 8 8
7 7 8 9 10 11 11 11 11 10 10 10 10 10 11 11 11 10 9 9 8 7
7 6 6 8 9 9 10 11 11 10 9 10 9 9 10 11 11 10 9 8 8 7
6 6 6 6 8 8 10 10 11 10 9 9 9 9 9 10 10 9 8 8 7 6
6 6 5 5 6 7 8 10 11 10 9 9 8 8 8 9 9 8 7 7 6 6
6 6 5 4 4 6 7 9 10 10 9 8 8 8 8 9 9 8 7 6 6 5
6 6 5 4 3 4 5 8 9 10 8 8 7 7 8 8 8 7 7 6 6 5
6 5 5 4 3 3 4 6 8 9 9 8 7 7 7 7 8 7 7 6 5 5
5 5 4 4 3 2 3 5 7 9 9 8 7 7 7 6 7 6 6 5 5 4
4 4 3 3 3 3 3 4 7 9 8 8 7 7 6 6 6 6 5 5 4 4
3 2 2 2 3 3 3 3 6 8 8 7 7 7 6 6 6 6 5 4 4 3

GFSNIL_850_temp_027.txt.gz
Temp
9 9 9 9 9 10 10 11 13 13 13 13 13 13 12 12 12 12 12 11 11 11
9 9 9 9 9 9 9 10 11 12 13 12 12 12 12 11 11 11 11 11 11 11
8 8 8 8 8 8 9 9 10 11 12 12 12 12 11 10 11 10 10 10 10 10
7 7 7 7 7 7 8 9 9 10 11 11 11 11 11 10 10 10 10 10 10 10
7 7 7 7 7 7 7 7 9 9 10 11 11 11 11 10 10 9 9 9 9 9
6 7 7 7 7 6 7 7 7 8 8 10 10 10 10 10 9 10 9 9 9 9
6 6 6 6 6 6 6 6 6 6 6 8 10 10 10 10 9 9 9 9 8 8
6 6 6 6 5 5 5 5 4 5 5 7 9 9 10 10 9 9 8 8 8 7
5 5 5 5 5 4 4 4 4 4 4 6 8 9 9 9 9 8 8 8 7 7
5 5 5 4 4 4 4 3 3 3 4 5 7 9 9 9 8 8 8 7 7 6
4 4 4 4 4 4 3 3 2 2 4 5 6 9 8 8 8 7 7 7 6 6
3 3 3 3 3 2 2 2 2 1 3 5 6 8 8 7 7 7 6 6 6 6
2 2 2 2 2 2 2 2 3 1 3 4 6 7 7 7 7 6 6 6 5 5
2 2 2 1 1 1 1 2 2 1 3 3 5 7 7 7 7 6 6 6 5 5

GFSNIL_850_temp_030.txt.gz
Temp
8 8 8 8 8 8 8 8 8 9 10 9 10 12 13 13 13 12 12 12 12 11
7 7 7 7 7 7 8 7 7 7 9 9 9 10 12 13 13 12 12 11 11 11
8 7 7 7 7 7 7 7 7 7 8 9 8 9 10 11 12 12 12 11 11 10
6 7 6 6 7 7 6 6 6 6 7 8 8 8 8 10 11 11 12 10 10 10
6 6 6 6 6 6 6 6 6 6 6 7 7 7 7 8 10 11 11 10 10 10
5 5 5 6 6 6 5 5 5 5 5 5 6 6 6 7 8 10 11 11 10 9
4 4 5 5 5 5 5 5 5 5 4 4 5 5 5 6 7 9 11 10 9 9
4 4 4 4 4 5 5 4 4 4 4 4 4 5 5 6 6 7 10 10 9 9
4 4 4 4 4 4 4 4 3 3 3 3 3 5 5 6 6 7 9 9 9 8
3 3 3 3 3 3 3 3 3 3 2 2 2 3 4 4 6 6 8 9 8 8
3 3 3 3 2 2 2 2 2 2 1 1 2 2 3 4 5 5 7 9 8 7
3 2 2 2 2 2 2 2 1 1 1 1 1 2 3 4 4 3 6 8 7 7
2 2 2 1 1 1 1 1 1 0 1 1 1 2 3 4 4 3 6 7 7 7
1 1 1 1 1 1 1 1 0 0 1 0 1 2 3 4 4 4 6 6 6 6

GFSNIL_850_temp_033.txt.gz
Temp
8 7 7 7 6 7 7 7 7 7 7 7 8 8 9 9 9 10 11 13 12 12
7 7 7 6 6 6 6 6 7 6 6 7 7 8 8 9 9 9 9 11 13 12
6 6 6 6 6 6 6 6 6 6 6 6 6 7 7 8 8 8 8 9 11 12
6 6 6 6 7 6 6 6 5 6 5 5 6 6 7 7 7 7 7 8 9 11
6 6 5 5 5 5 5 5 5 5 5 5 5 6 6 6 6 6 6 6 7 10
5 5 5 4 4 4 5 5 4 5 5 4 4 5 5 5 5 5 5 6 6 7
4 4 4 4 4 4 4 4 4 4 4 4 4 4 5 5 5 5 5 6 5 6
4 4 4 4 3 3 3 3 3 3 3 3 3 4 4 4 4 4 4 5 5 4
3 3 3 3 3 3 3 3 3 3 2 2 2 3 3 3 2 3 4 4 7 7
2 2 2 3 3 2 2 2 2 2 2 2 2 2 1 2 2 3 4 4 6 5
1 1 2 2 2 2 2 2 2 1 1 1 2 1 1 1 1 3 4 4 5 5
0 1 1 1 2 2 1 1 1 1 1 1 1 1 0 1 1 2 3 3 4 5
-0 0 0 0 1 1 1 0 0 -0 1 1 1 1 0 0 1 2 3 4 5 4
-1 -1 -0 0 -1 -0 -0 -1 -0 -0 0 1 1 1 0 0 1 3 3 2 3 3